Location: Brunembert
(50.7122°N, 1.8935°E)
Time: 10:55:38
(UTC+00:00)

Cosmos 2279 Rocket - Pass Details

Date: 22 April 2021
Orbit: 964 x 978 km, 82.9° (Epoch: 16 May)

Event Time Altitude Azimuth Distance (km) Brightness Sun altitude
Rises 19:25:39 0° 166° (SSE) 3,640 6.6 -4.7°
Reaches altitude 10° 19:28:14 10° 161° (SSE) 2,697 5.9 -5.0°
Maximum altitude 19:34:03 46° 90° (E) 1,281 4.3 -5.8°
Drops below altitude 10° 19:39:56 10° 19° (NNE) 2,718 6.5 -6.7°
Sets 19:42:32 0° 14° (NNE) 3,671 7.2 -7.0°
